Regional Weather Roundup
Issued by NWS

Home | Current Version | Previous Version | Graphics & Text | Print | Product List | Glossary On
Versions: 1 2 3 4 5 6 7 8 9 10 11 12 13 14 15 16 17 18 19 20 21 22 23 24 25 26 27 28 29 30 31 32 33 34 35 36 37 38 39 40 41 42 43 44 45 46 47 48 49 50
000
ASUS45 KCYS 192310
RWRWY

WYOMING REGIONAL WEATHER ROUNDUP
NATIONAL WEATHER SERVICE CHEYENNE WY
500 PM MDT WED JUL 19 2017

NOTE:  "FAIR" INDICATES FEW OR NO CLOUDS BELOW 12,000 FEET
WITH NO SIGNIFICANT WEATHER AND/OR OBSTRUCTIONS TO VISIBILITY.

WYZ001-200000-
YELLOWSTONE NATIONAL PARK

CITY           SKY/WX    TMP DP  RH WIND       PRES   REMARKS
LK YELLOWSTONE   N/A     77  26  15 SW9       30.33F
W YELLOWSTONE  NOT AVBL

$$
WYZ002>013-054>058-071-098>099-200000-
NORTHERN WYOMING

CITY           SKY/WX    TMP DP  RH WIND       PRES   REMARKS
JACKSON        SUNNY     86  34  15 SW7       30.19F
CODY           FAIR      82  50  32 N8        30.10F
GREYBULL       FAIR      97  29   9 NW7       29.96F HX  91
WORLAND        FAIR      96  38  13 VRB6      29.98F HX  91
SHERIDAN       FAIR      90  46  21 CALM      30.04F
BUFFALO        FAIR      87  42  20 N8        30.13F
GILLETTE       FAIR      90  49  24 NE10G21   30.07F
HULETT         FAIR      90  50  25 NE7       30.06F
NEWCASTLE      FAIR      93  45  18 N14G22    30.02F

$$
WYZ014>020-022>026-101>103-200000-
CENTRAL WYOMING

CITY           SKY/WX    TMP DP  RH WIND       PRES   REMARKS
BIG PINEY      FAIR      84  44  24 NW6       30.23F
PINEDALE       FAIR      81  39  22 CALM      30.26F
DUBOIS         FAIR      81  28  15 N18G29    30.23S
LANDER         LGT RAIN  82  45  27 W17G25    30.11
RIVERTON       FAIR      87  44  22 N5        30.09F
CASPER         FAIR      92  42  17 NE16      30.09F
DOUGLAS        FAIR      93  42  17 NE17G26   30.06F

$$
WYZ021-027>030-104>119-200000-
SOUTHERN WYOMING

CITY           SKY/WX    TMP DP  RH WIND       PRES   REMARKS
EVANSTON       FAIR      80  51  36 W9        30.27F
KEMMERER         N/A     79  45  29 W9        30.28S
FORT BRIDGER   CLOUDY    84  38  19 NW6       30.28F
ROCK SPRINGS   FAIR      86  37  17 W13       30.21F
RAWLINS        FAIR      84  38  19 SW17G26   30.21F
SARATOGA       FAIR      84  46  26 W15G22    30.24S
LARAMIE        LGT RAIN  83  40  21 NW18G25   30.24F
CHEYENNE       PTSUNNY   89  44  20 SE9       30.14S
TORRINGTON     FAIR     104  32   8 N15G23    29.95F HX  97
PINE BLUFFS    FAIR      93  43  17 E7        30.06F

$$



USA.gov is the U.S. government's official web portal to all federal, state and local government web resources and services.